[[{"header":{"parameterUnit":"m.s-1","parameterCategory":2,"la1":30.2991,"la2":30.254,"lo1":-89.0895,"lo2":-89.0444,"dy":0.0017,"dx":0.0017,"nx":28,"ny":28,"refTime":"2023-04-08T21:00:00:Z","depth":"0","parameterNumber":2,"parameterNumberName":"U-component_of_CURRENTS"},"data":[0,0,0,0,0,0,0,0,0,0,0,0,0,0,0,0,0,0,0,0,0,0,0,0,0,0,0,0,0,0,0,0,0,0,0,0,0,0,0,0,0,0,0,0,0,0,0,0,0,0,0,0,0,0,0,0,0,0,-0.2375,-0.2376,0,-0.2377,-0.2377,-0.2377,-0.2343,-0.2343,-0.2342,-0.2341,-0.2305,-0.2305,-0.2305,0,0,0,0,0,0,0,0,0,0,0,0,0,-0.2328,-0.2328,-0.2375,-0.2376,-0.2376,-0.2377,-0.2377,-0.2377,-0.2343,-0.2343,-0.2342,-0.2341,-0.2306,-0.2305,-0.2305,0,0,0,0,0,0,0,0,0,0,0,0,0,-0.2337,-0.2329,-0.2375,-0.2362,-0.2361,-0.2377,-0.2377,-0.2377,-0.2343,-0.2343,-0.2342,-0.2341,-0.2306,-0.2305,-0.2305,-0.2318,0,0,-0.2303,-0.2302,0,0,0,0,0,0,0,0,-0.2337,-0.2339,-0.2364,-0.2363,-0.2362,-0.2362,-0.2347,-0.2356,-0.2344,-0.2346,-0.2341,-0.234,-0.2324,-0.2322,-0.2319,-0.2316,-0.2315,-0.2303,-0.2302,-0.2302,-0.2302,0,0,0,0,0,0,0,-0.2336,-0.2338,-0.2372,-0.2364,-0.2363,-0.2351,-0.2351,-0.2348,-0.2336,-0.2346,-0.2345,-0.2351,-0.2323,-0.232,-0.2318,-0.2314,-0.2303,-0.2302,-0.2302,-0.2301,-0.2336,-0.2337,0,0,0,0,0,0,-0.2345,-0.2338,-0.2372,-0.2373,-0.2351,-0.2353,-0.2353,-0.236,-0.2337,-0.2334,-0.2352,-0.2349,-0.2322,-0.2319,-0.2317,-0.2347,-0.2302,-0.2301,-0.2301,-0.2334,-0.2336,-0.2337,0,0,0,0,0,0,-0.2344,-0.2348,-0.2372,-0.2358,-0.2361,-0.2355,-0.2363,-0.2361,-0.2357,-0.2343,-0.2338,-0.2351,-0.2321,-0.2318,-0.2319,-0.2345,-0.2301,-0.23,-0.2333,-0.2335,-0.2337,-0.2398,0,0,0,0,0,0,-0.2343,-0.2348,-0.2352,-0.2359,-0.2362,-0.2393,-0.2364,-0.2362,-0.2364,-0.2361,-0.2341,-0.2337,-0.232,-0.232,-0.2319,-0.2343,-0.23,-0.2331,-0.2334,-0.2336,-0.2394,-0.2402,-0.2408,0,0,0,0,0,-0.2341,-0.2355,-0.2352,-0.2356,-0.2369,-0.2394,-0.2395,-0.2385,-0.2365,-0.2375,-0.2357,-0.2337,-0.2335,-0.2321,-0.2318,-0.2343,-0.233,-0.2333,-0.2336,-0.2391,-0.24,-0.2408,0,0,0,0,0,0,-0.2334,-0.2354,-0.235,-0.2368,-0.2385,-0.239,-0.2395,-0.239,-0.2383,-0.2373,-0.2349,-0.2345,-0.2359,-0.2344,-0.2329,-0.2362,-0.2331,-0.2334,-0.2374,-0.2382,-0.2389,-0.2387,-0.2299,0,0,0,0,0,-0.2337,-0.2349,-0.237,-0.2382,-0.2393,-0.2393,-0.2399,-0.2398,-0.2396,-0.2392,-0.2379,-0.2368,-0.2371,-0.2369,-0.2368,-0.2382,-0.2363,-0.2398,-0.2405,-0.2411,-0.2409,-0.2408,-0.2414,-0.2347,-0.2347,-0.2347,0,0,-0.2334,-0.2348,-0.2353,-0.2381,-0.2387,-0.2415,-0.2394,-0.2411,-0.243,-0.239,-0.2401,-0.2391,-0.2381,-0.24,-0.2405,-0.2387,-0.2422,-0.2415,-0.242,-0.2414,-0.2411,-0.2418,-0.2423,-0.2349,-0.2349,-0.2348,0,0,-0.2343,-0.2352,-0.2369,-0.2392,-0.2417,-0.2426,-0.2435,-0.2448,-0.2449,-0.2465,-0.2444,-0.2448,-0.2447,-0.2448,-0.2448,-0.2493,-0.2461,-0.2496,-0.2526,-0.2526,-0.2531,-0.2535,-0.2523,-0.2526,-0.2497,-0.2497,-0.2497,0,-0.2339,-0.2365,-0.2378,-0.2409,-0.2429,-0.2435,-0.2465,-0.2478,-0.2488,-0.2493,-0.2476,-0.2483,-0.2473,-0.2498,-0.2513,-0.2509,-0.2495,-0.2495,-0.2534,-0.2537,-0.2541,-0.2528,-0.253,-0.2501,-0.25,-0.25,-0.25,0,-0.2366,-0.2391,-0.2406,-0.2446,-0.2473,-0.25,-0.253,-0.2547,-0.2545,-0.2552,-0.2571,-0.2559,-0.2558,-0.2566,-0.255,-0.2578,-0.2557,-0.2544,-0.251,-0.2551,-0.2535,-0.2536,-0.2505,-0.2504,-0.2503,-0.2502,0,0,-0.2338,-0.241,-0.2412,-0.2437,-0.2495,-0.2515,-0.2562,-0.2599,-0.2617,-0.2627,-0.2644,-0.2656,-0.2637,-0.2636,-0.2623,-0.2623,-0.2637,-0.2594,-0.2592,-0.2578,-0.2626,-0.2555,-0.2549,-0.2628,-0.2629,-0.2629,-0.2607,0,-0.235,-0.2407,-0.2445,-0.2496,-0.2527,-0.2566,-0.2609,-0.2644,-0.2661,-0.2681,-0.268,-0.2688,-0.2669,-0.2663,-0.2666,-0.2644,-0.2642,-0.2644,-0.2592,-0.259,-0.2518,-0.2548,-0.2439,-0.2404,-0.2608,-0.2608,-0.2608,0,-0.2353,-0.2396,-0.2447,-0.2519,-0.2536,-0.2569,-0.2626,-0.2664,-0.2709,-0.2721,-0.2735,-0.273,-0.274,-0.271,-0.2697,-0.2697,-0.2665,-0.2646,-0.2644,-0.2554,-0.252,-0.2396,-0.2398,-0.2387,-0.2609,-0.2609,-0.2609,0,-0.2308,-0.2389,-0.2425,-0.2452,-0.254,-0.2565,-0.2605,-0.2664,-0.2692,-0.2734,-0.275,-0.2765,-0.2759,-0.274,-0.2697,-0.2698,-0.2668,-0.2664,-0.2573,-0.2567,-0.245,-0.2433,-0.2428,-0.265,-0.265,-0.265,-0.265,0,-0.2297,-0.2323,-0.2402,-0.2423,-0.2461,-0.2534,-0.2574,-0.2618,-0.268,-0.2705,-0.2751,-0.276,-0.2765,-0.2748,-0.2711,-0.2638,-0.2677,-0.2578,-0.2558,-0.2468,-0.2454,-0.2418,-0.2423,-0.2649,-0.265,-0.265,-0.265,0,-0.223,-0.2291,-0.2329,-0.2415,-0.2437,-0.2455,-0.2541,-0.257,-0.2644,-0.2677,-0.2689,-0.2751,-0.2731,-0.2721,-0.2684,-0.264,-0.2533,-0.2547,-0.2436,-0.2403,-0.2306,-0.2317,-0.2255,-0.2194,-0.2452,-0.245,-0.2448,0,-0.2197,-0.2209,-0.2286,-0.2303,-0.2336,-0.2384,-0.2418,-0.252,-0.2556,-0.2655,-0.2659,-0.2682,-0.2657,-0.2596,-0.253,-0.2455,-0.2446,-0.2319,-0.2302,-0.2284,-0.2284,-0.2289,-0.2243,-0.2176,-0.2173,-0.217,-0.2167,0,-0.2115,-0.2138,-0.2165,-0.2203,-0.2236,-0.2276,-0.2335,-0.2367,-0.2481,-0.2515,-0.2543,-0.2535,-0.251,-0.2394,-0.2322,-0.2263,-0.2253,-0.2253,-0.2264,-0.2089,-0.2064,-0.2,-0.2213,-0.214,-0.2143,-0.2145,-0.2146,-0.2147,-0.2023,-0.2019,-0.2051,-0.207,-0.211,-0.2131,-0.212,-0.2201,-0.2226,-0.2252,-0.2346,-0.2308,-0.228,-0.2161,-0.2114,-0.2008,-0.205,-0.1948,-0.1971,-0.1985,-0.1901,-0.2051,-0.1938,-0.194,-0.1941,-0.1942,-0.1943,0,-0.1899,-0.1905,-0.1919,-0.1937,-0.1919,-0.1986,-0.2028,-0.1997,-0.1972,-0.2047,-0.2037,-0.2027,-0.1921,-0.1925,-0.1833,-0.1754,-0.1721,-0.1719,-0.1713,-0.1684,-0.1833,-0.1796,-0.1611,-0.1611,-0.1611,-0.1611,-0.1611,-0.1611,-0.1832,-0.1794,-0.1803,-0.1723,-0.1733,-0.1661,-0.1647,-0.1624,-0.1649,-0.1622,-0.1652,-0.1729,-0.1734,-0.182,-0.1718,-0.1638,-0.1607,-0.1535,-0.1579,-0.1708,-0.1732,-0.1755,-0.1724,-0.1526,-0.1526,-0.1367,-0.1366,-0.1365]},{"header":{"parameterUnit":"m.s-1","parameterCategory":2,"la1":30.2991,"la2":30.254,"lo1":-89.0895,"lo2":-89.0444,"dy":0.0017,"dx":0.0017,"nx":28,"ny":28,"refTime":"2023-04-08T21:00:00:Z","depth":"0","parameterNumber":3,"parameterNumberName":"V-component_of_CURRENTS"},"data":[0,0,0,0,0,0,0,0,0,0,0,0,0,0,0,0,0,0,0,0,0,0,0,0,0,0,0,0,0,0,0,0,0,0,0,0,0,0,0,0,0,0,0,0,0,0,0,0,0,0,0,0,0,0,0,0,0,0,-0.0358,-0.0357,0,-0.0276,-0.0275,-0.0275,-0.0223,-0.0222,-0.0222,-0.0222,-0.0117,-0.0115,-0.0112,0,0,0,0,0,0,0,0,0,0,0,0,0,-0.0428,-0.0427,-0.0358,-0.0357,-0.0356,-0.0277,-0.0275,-0.0274,-0.0223,-0.0222,-0.0222,-0.0222,-0.0118,-0.0115,-0.0112,0,0,0,0,0,0,0,0,0,0,0,0,0,-0.0377,-0.0427,-0.0358,-0.0321,-0.0317,-0.0277,-0.0275,-0.0274,-0.0223,-0.0222,-0.0222,-0.0222,-0.0119,-0.0116,-0.0112,-0.0097,0,0,-0.01,-0.0099,0,0,0,0,0,0,0,0,-0.038,-0.0375,-0.0327,-0.0324,-0.0319,-0.0259,-0.0262,-0.0214,-0.0223,-0.0258,-0.0222,-0.0221,-0.0163,-0.0156,-0.0141,-0.0092,-0.0088,-0.01,-0.0098,-0.0096,-0.0095,0,0,0,0,0,0,0,-0.0384,-0.0378,-0.0326,-0.0326,-0.0321,-0.0294,-0.0287,-0.0252,-0.0214,-0.0255,-0.0251,-0.0243,-0.0161,-0.0145,-0.0139,-0.0086,-0.01,-0.0097,-0.0094,-0.0093,-0.0014,-0.0015,0,0,0,0,0,0,-0.0397,-0.0381,-0.0328,-0.0323,-0.0349,-0.0293,-0.0285,-0.0279,-0.0214,-0.0204,-0.0243,-0.0241,-0.0152,-0.0143,-0.0135,-0.0113,-0.0096,-0.0093,-0.009,-0.0014,-0.0014,-0.0015,0,0,0,0,0,0,-0.0399,-0.0393,-0.0332,-0.035,-0.0341,-0.0293,-0.0286,-0.0277,-0.0261,-0.0205,-0.0195,-0.0236,-0.0151,-0.014,-0.0105,-0.0108,-0.0091,-0.0087,-0.0014,-0.0014,-0.0015,-0.007,0,0,0,0,0,0,-0.0401,-0.0394,-0.0396,-0.0351,-0.034,-0.0316,-0.0286,-0.0276,-0.0256,-0.0252,-0.0195,-0.0185,-0.015,-0.0111,-0.0101,-0.0103,-0.0084,-0.0014,-0.0014,-0.0014,-0.0068,-0.0072,-0.0075,0,0,0,0,0,-0.0404,-0.0411,-0.0397,-0.0391,-0.0344,-0.0316,-0.0308,-0.0272,-0.0257,-0.0255,-0.0214,-0.0187,-0.0106,-0.0108,-0.0097,-0.0097,-0.0014,-0.0014,-0.0014,-0.0066,-0.0071,-0.0075,0,0,0,0,0,0,-0.0443,-0.0405,-0.0389,-0.0384,-0.0356,-0.0308,-0.0303,-0.0277,-0.0243,-0.0239,-0.0186,-0.0173,-0.0145,-0.0114,-0.0117,-0.0076,-0.0057,-0.0055,-0.01,-0.0104,-0.0108,-0.0119,-0.0081,0,0,0,0,0,-0.0453,-0.045,-0.0407,-0.0406,-0.0394,-0.035,-0.0334,-0.031,-0.0272,-0.0257,-0.0216,-0.0174,-0.0138,-0.0116,-0.0082,-0.0057,-0.0019,-0.0051,-0.0055,-0.0059,-0.006,-0.0009,-0.0008,-0.0016,-0.0016,-0.0016,0,0,-0.0469,-0.0448,-0.0446,-0.0414,-0.0389,-0.038,-0.034,-0.0322,-0.0311,-0.0251,-0.0227,-0.0187,-0.0135,-0.0108,-0.0093,-0.0082,-0.0036,-0.0059,-0.0063,-0.0062,-0.0009,-0.0008,-0.0008,-0.0016,-0.0016,-0.0016,0,0,-0.0505,-0.048,-0.0491,-0.0469,-0.0437,-0.0407,-0.0405,-0.0359,-0.0336,-0.0307,-0.0262,-0.0223,-0.0171,-0.0131,-0.0105,-0.0109,-0.006,-0.0102,-0.0125,-0.0076,-0.0075,-0.0074,-0.0022,-0.0016,-0.0101,-0.0101,-0.0102,0,-0.0526,-0.0531,-0.0491,-0.0492,-0.048,-0.0423,-0.043,-0.0397,-0.0345,-0.0325,-0.0309,-0.0221,-0.0181,-0.0135,-0.0138,-0.0117,-0.0081,-0.0113,-0.0081,-0.0079,-0.0076,-0.0024,-0.0016,-0.0104,-0.0104,-0.0104,-0.0103,0,-0.0565,-0.0568,-0.0573,-0.0556,-0.0535,-0.0532,-0.0481,-0.0458,-0.0422,-0.0382,-0.0333,-0.027,-0.0217,-0.0199,-0.0169,-0.0132,-0.0109,-0.0095,-0.0071,-0.0079,-0.0023,-0.0014,-0.0108,-0.0107,-0.0106,-0.0106,0,0,-0.0613,-0.0605,-0.0606,-0.0614,-0.0569,-0.056,-0.0535,-0.0495,-0.0476,-0.0419,-0.0386,-0.032,-0.0278,-0.0246,-0.0197,-0.0152,-0.0104,-0.0123,-0.0119,-0.0075,0.0008,0.0055,0.0071,-0.0085,-0.0084,-0.0083,0.0041,0,-0.0657,-0.0689,-0.0662,-0.0682,-0.0692,-0.0632,-0.0613,-0.0564,-0.0511,-0.0464,-0.0384,-0.0337,-0.0297,-0.027,-0.0219,-0.013,-0.0083,-0.0139,0.0012,0.0017,0.0057,0.0082,0.0116,0.0232,0.005,0.0052,0.0053,0,-0.0702,-0.0717,-0.0753,-0.0749,-0.0745,-0.074,-0.0693,-0.0669,-0.058,-0.0538,-0.0467,-0.0396,-0.0311,-0.0284,-0.0134,-0.0172,-0.0092,-0.0024,-0.0017,0.0053,0.0082,0.0211,0.0256,0.0373,0.0068,0.0066,0.0065,0,-0.0761,-0.0779,-0.0814,-0.0811,-0.0792,-0.0789,-0.0768,-0.0693,-0.0668,-0.0579,-0.0543,-0.0431,-0.0365,-0.0255,-0.0104,-0.012,0.0065,0.0062,0.0182,0.0187,0.026,0.0269,0.0435,0.016,0.0159,0.0159,0.0159,0,-0.0818,-0.0845,-0.0847,-0.0865,-0.0894,-0.085,-0.0851,-0.0808,-0.0736,-0.0695,-0.0589,-0.052,-0.0356,-0.0223,-0.0106,0.0081,0.007,0.019,0.0226,0.0242,0.0247,0.0388,0.0423,0.0164,0.0163,0.0162,0.0161,0,-0.0876,-0.0881,-0.0922,-0.0923,-0.0927,-0.0944,-0.0918,-0.0908,-0.0831,-0.0771,-0.0743,-0.0577,-0.0391,-0.0216,-0.0011,0.0089,0.0336,0.0316,0.0328,0.0363,0.0566,0.0596,0.0792,0.0861,0.0464,0.0466,0.0467,0,-0.0911,-0.0939,-0.0973,-0.1003,-0.1008,-0.1023,-0.1027,-0.0966,-0.094,-0.0793,-0.0763,-0.0568,-0.0405,-0.0081,0.0138,0.0372,0.0445,0.0519,0.0491,0.0598,0.0659,0.0671,0.0715,0.057,0.0573,0.0575,0.0576,0,-0.0968,-0.0978,-0.1012,-0.1075,-0.1101,-0.1124,-0.1117,-0.1108,-0.1008,-0.0923,-0.0763,-0.0616,-0.028,0.0028,0.0328,0.0454,0.0608,0.0565,0.0681,0.0765,0.0786,0.0863,0.0465,0.0593,0.0592,0.059,0.0589,0.0589,-0.1,-0.1044,-0.1088,-0.1142,-0.1178,-0.1199,-0.1201,-0.1161,-0.1093,-0.0926,-0.0769,-0.0513,-0.0077,0.0367,0.0517,0.0825,0.0772,0.0899,0.0931,0.0937,0.0996,0.0635,0.0796,0.0795,0.0795,0.0794,0.0794,0,-0.1037,-0.1086,-0.115,-0.1209,-0.1249,-0.1249,-0.1239,-0.1198,-0.1104,-0.091,-0.0711,-0.0203,0.0219,0.0584,0.1036,0.1184,0.1199,0.1248,0.1276,0.1305,0.1005,0.1001,0.1208,0.1208,0.1208,0.1208,0.1207,0.1207,-0.1059,-0.1129,-0.1166,-0.1245,-0.1282,-0.1297,-0.1282,-0.1195,-0.1054,-0.0731,-0.0431,-0.0171,0.0367,0.1108,0.1496,0.1512,0.1625,0.1611,0.1673,0.1462,0.1432,0.1402,0.1409,0.1698,0.1699,0.1964,0.1966,0.1968]}],[{"header":{"parameterUnit":"m.s-1","parameterCategory":2,"la1":30.2991,"la2":30.254,"lo1":-89.0895,"lo2":-89.0444,"dy":0.0017,"dx":0.0017,"nx":28,"ny":28,"refTime":"2023-04-08T21:00:00:Z","depth":"2","parameterNumber":2,"parameterNumberName":"U-component_of_CURRENTS"},"data":[0,0,0,0,0,0,0,0,0,0,0,0,0,0,0,0,0,0,0,0,0,0,0,0,0,0,0,0,0,0,0,0,0,0,0,0,0,0,0,0,0,0,0,0,0,0,0,0,0,0,0,0,0,0,0,0,0,0,-0.2149,-0.215,0,-0.2154,-0.2154,-0.2154,-0.2128,-0.2128,-0.2128,-0.2127,-0.21,-0.21,-0.21,0,0,0,0,0,0,0,0,0,0,0,0,0,-0.2104,-0.2105,-0.2149,-0.215,-0.215,-0.2154,-0.2154,-0.2154,-0.2128,-0.2128,-0.2127,-0.2127,-0.21,-0.21,-0.21,0,0,0,0,0,0,0,0,0,0,0,0,0,-0.2115,-0.2105,-0.2149,-0.214,-0.214,-0.2154,-0.2154,-0.2154,-0.2129,-0.2128,-0.2127,-0.2127,-0.2101,-0.21,-0.21,-0.2109,0,0,-0.2098,-0.2098,0,0,0,0,0,0,0,0,-0.2114,-0.2116,-0.2141,-0.2141,-0.2141,-0.2143,-0.2128,-0.2138,-0.2129,-0.2129,-0.2127,-0.2126,-0.2114,-0.2113,-0.2111,-0.2108,-0.2107,-0.2098,-0.2098,-0.2098,-0.2097,0,0,0,0,0,0,0,-0.2113,-0.2116,-0.2148,-0.2142,-0.2141,-0.2132,-0.2132,-0.213,-0.2122,-0.2129,-0.2128,-0.2134,-0.2113,-0.2111,-0.211,-0.2107,-0.2098,-0.2098,-0.2097,-0.2097,-0.2132,-0.2133,0,0,0,0,0,0,-0.2121,-0.2115,-0.2148,-0.2148,-0.2129,-0.2133,-0.2134,-0.214,-0.2123,-0.2121,-0.2135,-0.2133,-0.2112,-0.211,-0.2109,-0.2141,-0.2098,-0.2097,-0.2097,-0.2131,-0.2132,-0.2134,0,0,0,0,0,0,-0.212,-0.2124,-0.2148,-0.2134,-0.2137,-0.2135,-0.2142,-0.2141,-0.2142,-0.2128,-0.2125,-0.2139,-0.2112,-0.2109,-0.2115,-0.2139,-0.2097,-0.2097,-0.2129,-0.2131,-0.2133,-0.2192,0,0,0,0,0,0,-0.2119,-0.2124,-0.2129,-0.2135,-0.2138,-0.2168,-0.2143,-0.2141,-0.2148,-0.2146,-0.213,-0.2127,-0.2111,-0.2116,-0.2114,-0.2138,-0.2096,-0.2128,-0.213,-0.2132,-0.2189,-0.2196,-0.2202,0,0,0,0,0,-0.2117,-0.2131,-0.2129,-0.2133,-0.2146,-0.2169,-0.217,-0.2164,-0.2149,-0.216,-0.2146,-0.2127,-0.2129,-0.2116,-0.2114,-0.2138,-0.2127,-0.213,-0.2132,-0.2186,-0.2194,-0.2202,0,0,0,0,0,0,-0.2113,-0.213,-0.2128,-0.2145,-0.2162,-0.2166,-0.2174,-0.217,-0.2167,-0.2161,-0.214,-0.2137,-0.2153,-0.2138,-0.2124,-0.2156,-0.2126,-0.2129,-0.2168,-0.2176,-0.2182,-0.2181,-0.2096,0,0,0,0,0,-0.2116,-0.2128,-0.2147,-0.216,-0.217,-0.2172,-0.2179,-0.218,-0.218,-0.2178,-0.2168,-0.216,-0.2164,-0.2163,-0.2162,-0.2176,-0.2157,-0.2192,-0.2199,-0.2204,-0.2202,-0.2198,-0.2203,-0.2143,-0.2143,-0.2142,0,0,-0.2115,-0.2128,-0.2133,-0.2159,-0.2166,-0.2191,-0.2174,-0.2193,-0.2211,-0.2176,-0.2191,-0.2184,-0.2173,-0.2192,-0.2198,-0.2181,-0.2214,-0.2208,-0.2213,-0.2207,-0.2201,-0.2207,-0.2212,-0.2144,-0.2144,-0.2144,0,0,-0.2126,-0.2136,-0.2151,-0.2173,-0.2197,-0.2206,-0.2215,-0.2229,-0.2233,-0.2251,-0.2233,-0.2238,-0.224,-0.2239,-0.2238,-0.2281,-0.2251,-0.2285,-0.2314,-0.2311,-0.2315,-0.2319,-0.2309,-0.2311,-0.2286,-0.2286,-0.2286,0,-0.2125,-0.2148,-0.216,-0.2189,-0.2208,-0.2216,-0.2243,-0.2256,-0.2269,-0.2275,-0.2263,-0.2272,-0.2263,-0.2284,-0.2299,-0.2295,-0.2284,-0.2285,-0.2318,-0.2322,-0.2325,-0.2313,-0.2315,-0.2289,-0.2289,-0.2289,-0.2288,0,-0.215,-0.2174,-0.2188,-0.2225,-0.225,-0.2275,-0.2303,-0.2322,-0.2325,-0.2331,-0.2352,-0.2342,-0.2342,-0.235,-0.2336,-0.2361,-0.2343,-0.2329,-0.2296,-0.2334,-0.232,-0.2321,-0.2294,-0.2293,-0.2292,-0.2291,0,0,-0.2127,-0.2192,-0.2195,-0.2217,-0.2271,-0.2289,-0.2334,-0.2368,-0.2386,-0.24,-0.2418,-0.243,-0.2416,-0.2413,-0.2402,-0.2401,-0.2415,-0.2376,-0.2374,-0.2362,-0.2402,-0.2332,-0.2325,-0.2406,-0.2406,-0.2406,-0.2386,0,-0.2139,-0.2191,-0.2225,-0.2272,-0.23,-0.2336,-0.2376,-0.241,-0.2428,-0.2449,-0.2449,-0.246,-0.2444,-0.2441,-0.2443,-0.2422,-0.2419,-0.2421,-0.237,-0.2368,-0.2298,-0.2325,-0.2142,-0.2103,-0.2386,-0.2386,-0.2387,0,-0.2143,-0.2181,-0.2228,-0.2293,-0.2309,-0.2341,-0.2394,-0.243,-0.2473,-0.2487,-0.2502,-0.2499,-0.2508,-0.2483,-0.2468,-0.247,-0.2441,-0.2422,-0.242,-0.2331,-0.2299,-0.211,-0.2093,-0.2387,-0.2387,-0.2387,-0.2387,0,-0.2103,-0.2176,-0.2209,-0.2234,-0.2314,-0.2339,-0.2377,-0.2432,-0.2459,-0.2501,-0.2518,-0.2532,-0.253,-0.2509,-0.247,-0.2471,-0.2441,-0.2435,-0.2346,-0.234,-0.2161,-0.2139,-0.2419,-0.2419,-0.2419,-0.2419,-0.2419,0,-0.2094,-0.2118,-0.2191,-0.2211,-0.2246,-0.2314,-0.2353,-0.2394,-0.2454,-0.2476,-0.2522,-0.253,-0.2535,-0.2519,-0.2482,-0.241,-0.2448,-0.235,-0.233,-0.2178,-0.2158,-0.2383,-0.238,-0.2418,-0.2419,-0.2419,-0.2419,0,-0.2035,-0.209,-0.2125,-0.2205,-0.2226,-0.2245,-0.2325,-0.2352,-0.2424,-0.2455,-0.2468,-0.2525,-0.2505,-0.2495,-0.2457,-0.2413,-0.2358,-0.232,-0.2139,-0.2098,-0.2261,-0.2261,-0.2229,-0.2227,-0.2224,-0.2223,-0.2221,0,-0.2006,-0.2018,-0.2089,-0.2104,-0.2136,-0.2183,-0.2214,-0.2309,-0.2341,-0.2433,-0.2435,-0.2458,-0.243,-0.2368,-0.2296,-0.222,-0.2286,-0.2017,-0.1989,-0.2258,-0.2242,-0.2245,-0.2248,-0.1778,-0.1773,-0.1768,-0.1765,0,-0.1932,-0.1954,-0.1979,-0.2014,-0.2044,-0.2078,-0.2133,-0.216,-0.2265,-0.2293,-0.2312,-0.2302,-0.2275,-0.2116,-0.2044,-0.1975,-0.2019,-0.1931,-0.2245,-0.186,-0.1831,-0.1816,-0.1834,-0.1728,-0.1732,-0.1734,-0.1736,-0.1738,-0.1848,-0.1845,-0.1874,-0.1891,-0.1927,-0.1939,-0.1923,-0.1991,-0.2005,-0.201,-0.2105,-0.2027,-0.2029,-0.1818,-0.1726,-0.1658,-0.1795,-0.1707,-0.172,-0.1737,-0.1694,-0.1664,-0.1521,-0.1523,-0.1525,-0.1527,-0.1528,0,-0.1733,-0.1738,-0.175,-0.1761,-0.174,-0.1804,-0.1832,-0.1786,-0.1744,-0.1782,-0.1758,-0.1576,-0.1483,-0.1493,-0.1333,-0.1311,-0.1298,-0.1254,-0.1232,-0.1269,-0.1302,-0.1238,-0.0943,-0.0941,-0.094,-0.0938,0,0,-0.167,-0.1631,-0.1637,-0.1552,-0.1561,-0.148,-0.1459,-0.1409,-0.1399,-0.1306,-0.1264,-0.1375,-0.1433,-0.1185,-0.1132,-0.101,-0.1127,-0.0957,-0.1422,-0.1432,-0.1462,-0.1554,-0.1495,0,0,0,0,0]},{"header":{"parameterUnit":"m.s-1","parameterCategory":2,"la1":30.2991,"la2":30.254,"lo1":-89.0895,"lo2":-89.0444,"dy":0.0017,"dx":0.0017,"nx":28,"ny":28,"refTime":"2023-04-08T21:00:00:Z","depth":"2","parameterNumber":3,"parameterNumberName":"V-component_of_CURRENTS"},"data":[0,0,0,0,0,0,0,0,0,0,0,0,0,0,0,0,0,0,0,0,0,0,0,0,0,0,0,0,0,0,0,0,0,0,0,0,0,0,0,0,0,0,0,0,0,0,0,0,0,0,0,0,0,0,0,0,0,0,-0.0246,-0.0245,0,-0.0168,-0.0167,-0.0166,-0.0119,-0.0119,-0.0119,-0.0118,-0.0021,-0.0019,-0.0016,0,0,0,0,0,0,0,0,0,0,0,0,0,-0.0314,-0.0313,-0.0246,-0.0245,-0.0244,-0.0168,-0.0167,-0.0166,-0.0119,-0.0119,-0.0119,-0.0118,-0.0022,-0.0019,-0.0016,0,0,0,0,0,0,0,0,0,0,0,0,0,-0.0265,-0.0313,-0.0246,-0.0212,-0.0208,-0.0168,-0.0167,-0.0165,-0.0119,-0.0119,-0.0119,-0.0118,-0.0023,-0.0019,-0.0016,0.0001,0,0,-0.0005,-0.0003,0,0,0,0,0,0,0,0,-0.0268,-0.0262,-0.0218,-0.0214,-0.021,-0.0153,-0.0155,-0.0109,-0.0119,-0.0153,-0.0118,-0.0118,-0.0064,-0.0057,-0.0043,0.0006,0.001,-0.0004,-0.0002,-0.0001,0.0,0,0,0,0,0,0,0,-0.0271,-0.0265,-0.0215,-0.0217,-0.0212,-0.0186,-0.0179,-0.0146,-0.011,-0.015,-0.0146,-0.0138,-0.0062,-0.0046,-0.004,0.0011,-0.0005,-0.0001,0.0001,0.0002,0.0078,0.0078,0,0,0,0,0,0,-0.0284,-0.0269,-0.0217,-0.0212,-0.0239,-0.0186,-0.0178,-0.0171,-0.0111,-0.0102,-0.0138,-0.0136,-0.0053,-0.0044,-0.0036,-0.0015,-0.0001,0.0003,0.0005,0.0078,0.0078,0.0078,0,0,0,0,0,0,-0.0286,-0.028,-0.022,-0.0239,-0.0229,-0.0185,-0.0178,-0.017,-0.0155,-0.0103,-0.0093,-0.0132,-0.0052,-0.0041,-0.0008,-0.0011,0.0004,0.0008,0.0078,0.0078,0.0078,0.003,0,0,0,0,0,0,-0.0288,-0.0281,-0.0284,-0.024,-0.0229,-0.0205,-0.0178,-0.0169,-0.0151,-0.0147,-0.0094,-0.0084,-0.0051,-0.0014,-0.0005,-0.0005,0.001,0.0078,0.0078,0.0078,0.0031,0.0028,0.0025,0,0,0,0,0,-0.0291,-0.0297,-0.0284,-0.0278,-0.0233,-0.0205,-0.0197,-0.0164,-0.0151,-0.0149,-0.0111,-0.0086,-0.001,-0.0011,-0.0,0.0,0.0079,0.0078,0.0078,0.0033,0.0029,0.0025,0,0,0,0,0,0,-0.0328,-0.0291,-0.0277,-0.0272,-0.0244,-0.0197,-0.0194,-0.0169,-0.0137,-0.0135,-0.0084,-0.0072,-0.0046,-0.0017,-0.002,0.002,0.0037,0.0039,-0.0001,-0.0005,-0.0008,-0.0018,0.0013,0,0,0,0,0,-0.0338,-0.0334,-0.0293,-0.0291,-0.028,-0.0238,-0.0223,-0.0201,-0.0165,-0.0151,-0.0112,-0.0073,-0.0039,-0.0018,0.0014,0.0039,0.0074,0.0045,0.0042,0.0039,0.0037,0.0086,0.0087,0.0076,0.0076,0.0076,0,0,-0.0353,-0.0332,-0.0331,-0.0299,-0.0276,-0.0265,-0.0229,-0.0212,-0.02,-0.0145,-0.0121,-0.0085,-0.0036,-0.0009,0.0005,0.0016,0.0061,0.0038,0.0035,0.0036,0.0086,0.0087,0.0088,0.0076,0.0076,0.0076,0,0,-0.0385,-0.0363,-0.0372,-0.035,-0.032,-0.029,-0.0289,-0.0245,-0.0223,-0.0195,-0.0154,-0.0118,-0.0068,-0.0029,-0.0004,-0.0006,0.0038,-0.0,-0.002,0.0027,0.0029,0.003,0.0076,0.0083,0.0001,0.0001,0.0001,0,-0.0405,-0.0408,-0.0371,-0.037,-0.0358,-0.0306,-0.031,-0.0278,-0.0229,-0.021,-0.0197,-0.0114,-0.0076,-0.003,-0.0033,-0.0013,0.0019,-0.0009,0.0023,0.0025,0.0028,0.0075,0.0082,-0.0001,-0.0001,-0.0001,-0.0001,0,-0.0438,-0.0441,-0.0444,-0.0426,-0.0406,-0.0402,-0.0352,-0.0331,-0.0298,-0.026,-0.0214,-0.0155,-0.0105,-0.0088,-0.006,-0.0023,-0.0005,0.001,0.0032,0.0026,0.0076,0.0085,-0.0005,-0.0004,-0.0003,-0.0003,0,0,-0.0483,-0.0473,-0.0474,-0.0481,-0.0436,-0.0426,-0.04,-0.0361,-0.0344,-0.0289,-0.0259,-0.0195,-0.0159,-0.0128,-0.0082,-0.0039,0.0007,-0.0013,-0.001,0.003,0.0111,0.0146,0.016,0.0025,0.0026,0.0027,0.0139,0,-0.0523,-0.0549,-0.0522,-0.0539,-0.0546,-0.049,-0.0469,-0.0423,-0.0374,-0.033,-0.0254,-0.0211,-0.0174,-0.0151,-0.01,-0.0019,0.0027,-0.0025,0.0114,0.0118,0.0148,0.017,0.014,0.0239,0.0148,0.0149,0.015,0,-0.0564,-0.0575,-0.0605,-0.0599,-0.0596,-0.059,-0.0547,-0.0522,-0.0438,-0.0399,-0.0332,-0.0267,-0.0187,-0.0161,-0.002,-0.0056,0.0018,0.0082,0.0088,0.0144,0.0169,0.0231,0.0258,0.0165,0.0164,0.0163,0.0162,0,-0.062,-0.0633,-0.0664,-0.066,-0.0639,-0.0637,-0.0617,-0.0546,-0.0524,-0.044,-0.041,-0.0301,-0.0243,-0.0137,0.0003,-0.0011,0.0161,0.0162,0.0266,0.027,0.0284,0.0287,0.0255,0.0255,0.0255,0.0254,0.0254,0,-0.0673,-0.0697,-0.0697,-0.0713,-0.0742,-0.0698,-0.0701,-0.0661,-0.0594,-0.0559,-0.0455,-0.0396,-0.0235,-0.0111,0.0,0.0171,0.0165,0.0272,0.0305,0.0267,0.0266,0.0231,0.0227,0.0259,0.0258,0.0257,0.0256,0,-0.0731,-0.0733,-0.0771,-0.077,-0.0774,-0.0792,-0.0771,-0.0762,-0.0691,-0.064,-0.0615,-0.0458,-0.0287,-0.0117,0.0077,0.0173,0.0325,0.0383,0.033,0.0355,0.04,0.0392,0.0507,0.051,0.0512,0.0513,0.0514,0,-0.0765,-0.0791,-0.0823,-0.0853,-0.0859,-0.0876,-0.0881,-0.0824,-0.0802,-0.067,-0.0645,-0.0466,-0.0319,-0.0015,0.0189,0.0408,0.0395,0.0492,0.0462,0.0408,0.0428,0.0417,0.0406,0.0463,0.0464,0.0465,0.0465,0,-0.0823,-0.0833,-0.0865,-0.0928,-0.0957,-0.098,-0.0977,-0.0971,-0.088,-0.0806,-0.0667,-0.0536,-0.0228,0.0029,0.0312,0.0424,0.0455,0.0513,0.0487,0.04,0.0374,0.0391,0.0381,0.0471,0.047,0.047,0.047,0.0469,-0.0858,-0.0902,-0.0944,-0.1,-0.1038,-0.1062,-0.1067,-0.1031,-0.0975,-0.0828,-0.0693,-0.0468,-0.022,0.0192,0.0383,0.0548,0.0544,0.0572,0.0567,0.0562,0.0532,0.0511,0.0629,0.0629,0.0629,0.0629,0.063,0,-0.09,-0.0948,-0.1011,-0.1072,-0.1114,-0.1115,-0.111,-0.1072,-0.0994,-0.0826,-0.0655,-0.0364,-0.0068,0.0177,0.0455,0.0621,0.0585,0.0627,0.0553,0.0547,0.0542,0.0508,0.06,0.06,0.0601,0.0601,0,0,-0.0924,-0.0993,-0.1028,-0.1113,-0.1153,-0.1173,-0.1161,-0.1078,-0.0953,-0.0769,-0.0593,-0.0351,-0.0048,0.0139,0.035,0.0489,0.0465,0.0486,0.0494,0.0377,0.037,0.0499,0.044,0,0,0,0,0]}],[{"header":{"parameterUnit":"m.s-1","parameterCategory":2,"la1":30.2991,"la2":30.254,"lo1":-89.0895,"lo2":-89.0444,"dy":0.0017,"dx":0.0017,"nx":28,"ny":28,"refTime":"2023-04-08T21:00:00:Z","depth":"4","parameterNumber":2,"parameterNumberName":"U-component_of_CURRENTS"},"data":[0,0,0,0,0,0,0,0,0,0,0,0,0,0,0,0,0,0,0,0,0,0,0,0,0,0,0,0,0,0,0,0,0,0,0,0,0,0,0,0,0,0,0,0,0,0,0,0,0,0,0,0,0,0,0,0,0,0,-0.1528,-0.1528,0,-0.1573,-0.1573,-0.1573,-0.1602,-0.1602,-0.1602,-0.1603,-0.1643,-0.1644,-0.1645,0,0,0,0,0,0,0,0,0,0,0,0,0,-0.1458,-0.1459,-0.1527,-0.1528,-0.1529,-0.1573,-0.1573,-0.1573,-0.1601,-0.1602,-0.1602,-0.1603,-0.1643,-0.1644,-0.1645,0,0,0,0,0,0,0,0,0,0,0,0,0,-0.1492,-0.1459,-0.1527,-0.155,-0.1552,-0.1573,-0.1573,-0.1574,-0.1601,-0.1602,-0.1602,-0.1603,-0.1643,-0.1644,-0.1645,-0.1641,0,0,-0.1648,-0.1649,0,0,0,0,0,0,0,0,-0.149,-0.1494,-0.1546,-0.1548,-0.1551,-0.1584,-0.1563,-0.1597,-0.1601,-0.1581,-0.1603,-0.1603,-0.1624,-0.1627,-0.1631,-0.1643,-0.1645,-0.1648,-0.1649,-0.165,-0.165,0,0,0,0,0,0,0,-0.1487,-0.1492,-0.1543,-0.1547,-0.155,-0.1555,-0.156,-0.157,-0.1597,-0.1582,-0.1585,-0.1593,-0.1625,-0.163,-0.1632,-0.1646,-0.1648,-0.1649,-0.165,-0.1651,-0.1724,-0.1725,0,0,0,0,0,0,-0.1486,-0.149,-0.1542,-0.1545,-0.1524,-0.1556,-0.1562,-0.1571,-0.1597,-0.1602,-0.1593,-0.1594,-0.1628,-0.1631,-0.1634,-0.1698,-0.165,-0.1651,-0.1651,-0.1723,-0.1724,-0.1726,0,0,0,0,0,0,-0.1484,-0.149,-0.154,-0.152,-0.1527,-0.1557,-0.1567,-0.1572,-0.1604,-0.1605,-0.161,-0.1623,-0.1628,-0.1632,-0.1668,-0.1698,-0.1651,-0.1652,-0.1721,-0.1723,-0.1725,-0.1785,0,0,0,0,0,0,-0.1482,-0.1489,-0.1508,-0.152,-0.1528,-0.1574,-0.1567,-0.1572,-0.1607,-0.1611,-0.1633,-0.1635,-0.1629,-0.1666,-0.1669,-0.1698,-0.1653,-0.172,-0.1722,-0.1725,-0.1781,-0.1788,-0.1795,0,0,0,0,0,-0.148,-0.15,-0.1509,-0.1516,-0.1549,-0.1575,-0.1581,-0.1601,-0.1609,-0.163,-0.1645,-0.1636,-0.1683,-0.1668,-0.1671,-0.1702,-0.1719,-0.1722,-0.1724,-0.1778,-0.1787,-0.1794,0,0,0,0,0,0,-0.1482,-0.1506,-0.1515,-0.1544,-0.1569,-0.1582,-0.1607,-0.1618,-0.1646,-0.1656,-0.1653,-0.1657,-0.17,-0.1692,-0.1676,-0.1729,-0.1699,-0.1703,-0.1739,-0.1747,-0.1754,-0.1746,-0.1654,0,0,0,0,0,-0.149,-0.1513,-0.1535,-0.1561,-0.1576,-0.1596,-0.1614,-0.163,-0.165,-0.1664,-0.1679,-0.1693,-0.1709,-0.1723,-0.1734,-0.1764,-0.1742,-0.1785,-0.1792,-0.1798,-0.1794,-0.1785,-0.179,-0.1735,-0.1735,-0.1735,0,0,-0.1498,-0.1516,-0.153,-0.1564,-0.1584,-0.1612,-0.1609,-0.1647,-0.1675,-0.1663,-0.1714,-0.1722,-0.1723,-0.1757,-0.1775,-0.1759,-0.1804,-0.1802,-0.1807,-0.1799,-0.1788,-0.1794,-0.1798,-0.1737,-0.1737,-0.1737,0,0,-0.1517,-0.1543,-0.1566,-0.1592,-0.1631,-0.1644,-0.1661,-0.1693,-0.1716,-0.1758,-0.1757,-0.1781,-0.1812,-0.1814,-0.1818,-0.1868,-0.1841,-0.188,-0.1909,-0.1901,-0.1905,-0.1908,-0.1893,-0.1895,-0.1882,-0.1882,-0.1882,0,-0.1529,-0.1558,-0.1579,-0.1609,-0.1635,-0.1661,-0.1693,-0.172,-0.1762,-0.1779,-0.1786,-0.1828,-0.1834,-0.186,-0.188,-0.1883,-0.1871,-0.1878,-0.1908,-0.1911,-0.1913,-0.1897,-0.1898,-0.1886,-0.1885,-0.1885,-0.1885,0,-0.1554,-0.1592,-0.1611,-0.1654,-0.1686,-0.1721,-0.1757,-0.1796,-0.1825,-0.1843,-0.1889,-0.1897,-0.1915,-0.1928,-0.1922,-0.1948,-0.1932,-0.1919,-0.1885,-0.1922,-0.1903,-0.1903,-0.189,-0.1889,-0.1888,-0.1887,0,0,-0.1539,-0.1614,-0.1623,-0.1652,-0.1715,-0.1738,-0.1796,-0.1841,-0.1872,-0.1915,-0.1947,-0.1979,-0.198,-0.1984,-0.1982,-0.1981,-0.1993,-0.1963,-0.1961,-0.1943,-0.1973,-0.185,-0.1837,-0.1987,-0.1987,-0.1987,-0.1956,0,-0.1554,-0.1612,-0.1649,-0.171,-0.1741,-0.179,-0.1837,-0.1884,-0.1922,-0.1961,-0.1976,-0.2007,-0.2003,-0.2015,-0.2016,-0.2,-0.1994,-0.2002,-0.1944,-0.1942,-0.1823,-0.1833,-0.1988,-0.1955,-0.1955,-0.1955,-0.1955,0,-0.1555,-0.1598,-0.1659,-0.1734,-0.1753,-0.1798,-0.1869,-0.1913,-0.1971,-0.2,-0.2031,-0.2042,-0.206,-0.2045,-0.203,-0.2038,-0.2011,-0.1992,-0.199,-0.1849,-0.1816,-0.1909,-0.1954,-0.1954,-0.1954,-0.1954,-0.1954,0,-0.1512,-0.1598,-0.1647,-0.1675,-0.1766,-0.1808,-0.1857,-0.1925,-0.1959,-0.2021,-0.2046,-0.2069,-0.2081,-0.2059,-0.2027,-0.2034,-0.1993,-0.1993,-0.1854,-0.1845,-0.1941,-0.1938,-0.197,-0.197,-0.197,-0.197,-0.197,0,-0.1493,-0.1534,-0.1636,-0.1663,-0.1719,-0.1793,-0.1853,-0.1903,-0.1972,-0.1995,-0.2058,-0.2062,-0.2086,-0.2067,-0.2032,-0.193,-0.1994,-0.1849,-0.1823,-0.1969,-0.1969,-0.1941,-0.1938,-0.1969,-0.1969,-0.197,-0.197,0,-0.1428,-0.1501,-0.1559,-0.1666,-0.17,-0.1737,-0.184,-0.1872,-0.1956,-0.1986,-0.2006,-0.2061,-0.2032,-0.2029,-0.1989,-0.1919,-0.1846,-0.1794,-0.1946,-0.1931,-0.1707,-0.1708,-0.1637,-0.1632,-0.1628,-0.1625,-0.1622,0,-0.1395,-0.1421,-0.1538,-0.157,-0.1623,-0.1697,-0.1739,-0.1842,-0.1868,-0.1956,-0.1947,-0.1971,-0.1984,-0.182,-0.1842,-0.176,-0.1737,-0.1696,-0.1704,-0.1688,-0.1671,-0.1678,-0.1684,-0.1615,-0.1614,-0.1613,-0.1612,0,-0.1321,-0.1375,-0.142,-0.1487,-0.1544,-0.1591,-0.1659,-0.1668,-0.1767,-0.1871,-0.1824,-0.1795,-0.1762,-0.172,-0.1668,-0.1612,-0.1722,-0.1654,-0.1662,-0.1669,-0.1661,-0.165,-0.1661,-0.1598,-0.16,-0.1602,-0.1602,0,-0.1255,-0.1267,-0.133,-0.1371,-0.1438,-0.1444,-0.1507,-0.1527,-0.1562,-0.1671,-0.1647,-0.1671,-0.1734,-0.1641,-0.1589,-0.1528,-0.1507,-0.1457,-0.1475,-0.1491,-0.1457,-0.1426,-0.1257,0,0,0,0,0,-0.1176,-0.1172,-0.1205,-0.1238,-0.1299,-0.1327,-0.1425,-0.1492,-0.1602,-0.152,-0.1577,-0.1534,-0.1469,-0.1486,-0.1388,-0.1524,-0.1515,-0.1406,-0.1468,-0.1521,-0.1537,-0.151,0,0,0,0,0,0,-0.1122,-0.1147,-0.1155,-0.1104,-0.1101,-0.1141,-0.1194,-0.1278,-0.1246,-0.1367,-0.1333,-0.1428,-0.1382,-0.148,-0.1346,-0.1352,-0.1358,-0.1437,-0.1432,-0.1512,-0.1526,-0.1539,-0.1517,0,0,0,0,0]},{"header":{"parameterUnit":"m.s-1","parameterCategory":2,"la1":30.2991,"la2":30.254,"lo1":-89.0895,"lo2":-89.0444,"dy":0.0017,"dx":0.0017,"nx":28,"ny":28,"refTime":"2023-04-08T21:00:00:Z","depth":"4","parameterNumber":3,"parameterNumberName":"V-component_of_CURRENTS"},"data":[0,0,0,0,0,0,0,0,0,0,0,0,0,0,0,0,0,0,0,0,0,0,0,0,0,0,0,0,0,0,0,0,0,0,0,0,0,0,0,0,0,0,0,0,0,0,0,0,0,0,0,0,0,0,0,0,0,0,-0.0132,-0.0132,0,-0.0076,-0.0075,-0.0074,-0.0042,-0.0042,-0.0042,-0.0042,0.0035,0.0037,0.0039,0,0,0,0,0,0,0,0,0,0,0,0,0,-0.0177,-0.0177,-0.0132,-0.0132,-0.0131,-0.0076,-0.0075,-0.0074,-0.0042,-0.0042,-0.0042,-0.0042,0.0034,0.0036,0.0039,0,0,0,0,0,0,0,0,0,0,0,0,0,-0.0143,-0.0177,-0.0132,-0.0109,-0.0106,-0.0076,-0.0075,-0.0074,-0.0042,-0.0042,-0.0042,-0.0041,0.0033,0.0036,0.0039,0.0055,0,0,0.0048,0.0049,0,0,0,0,0,0,0,0,-0.0145,-0.0141,-0.0113,-0.011,-0.0107,-0.0066,-0.0063,-0.003,-0.0042,-0.0065,-0.0042,-0.0041,0.0002,0.0008,0.0019,0.0059,0.0062,0.0048,0.005,0.0051,0.0052,0,0,0,0,0,0,0,-0.0147,-0.0143,-0.0109,-0.0112,-0.0109,-0.0089,-0.0084,-0.0057,-0.0032,-0.0063,-0.0061,-0.0056,0.0004,0.0016,0.0021,0.0063,0.0048,0.0051,0.0053,0.0054,0.0115,0.0115,0,0,0,0,0,0,-0.0157,-0.0145,-0.0111,-0.0108,-0.0127,-0.0088,-0.0083,-0.0079,-0.0033,-0.0026,-0.0056,-0.0054,0.0011,0.0017,0.0024,0.0043,0.0051,0.0054,0.0056,0.0115,0.0115,0.0115,0,0,0,0,0,0,-0.0158,-0.0155,-0.0113,-0.0126,-0.0119,-0.0088,-0.0084,-0.0078,-0.0068,-0.0027,-0.002,-0.0052,0.0011,0.002,0.0046,0.0046,0.0055,0.0058,0.0116,0.0115,0.0115,0.0083,0,0,0,0,0,0,-0.016,-0.0156,-0.0159,-0.0126,-0.0119,-0.0102,-0.0084,-0.0077,-0.0065,-0.0063,-0.0022,-0.0014,0.0012,0.0041,0.0049,0.0051,0.006,0.0116,0.0115,0.0115,0.0085,0.0082,0.008,0,0,0,0,0,-0.0162,-0.0167,-0.016,-0.0155,-0.0124,-0.0103,-0.0097,-0.0074,-0.0065,-0.0064,-0.0034,-0.0016,0.0045,0.0044,0.0053,0.0055,0.0116,0.0116,0.0115,0.0086,0.0083,0.008,0,0,0,0,0,0,-0.0188,-0.0163,-0.0154,-0.0152,-0.0132,-0.0098,-0.0096,-0.0078,-0.0054,-0.0052,-0.0013,-0.0004,0.0017,0.004,0.0037,0.0071,0.0082,0.0083,0.0057,0.0054,0.0052,0.0043,0.0063,0,0,0,0,0,-0.0196,-0.0195,-0.0166,-0.0166,-0.0158,-0.0128,-0.0118,-0.0102,-0.0075,-0.0064,-0.0035,-0.0004,0.0023,0.0041,0.0065,0.0088,0.0114,0.0093,0.0091,0.0089,0.0087,0.0129,0.013,0.0114,0.0114,0.0114,0,0,-0.0208,-0.0194,-0.0194,-0.0172,-0.0156,-0.0147,-0.0122,-0.0111,-0.01,-0.0059,-0.004,-0.0013,0.0026,0.0048,0.006,0.0069,0.0107,0.0089,0.0087,0.0086,0.0129,0.013,0.0132,0.0114,0.0114,0.0114,0,0,-0.023,-0.0217,-0.0224,-0.0209,-0.0189,-0.0167,-0.0166,-0.0134,-0.0118,-0.0096,-0.0065,-0.0036,0.0003,0.0035,0.0056,0.0056,0.009,0.006,0.0049,0.0089,0.009,0.0092,0.0126,0.0131,0.0063,0.0063,0.0063,0,-0.0245,-0.0248,-0.0223,-0.0222,-0.0215,-0.0179,-0.0181,-0.0157,-0.012,-0.0106,-0.0098,-0.0032,-0.0002,0.0038,0.0037,0.0052,0.0076,0.0056,0.0086,0.0088,0.0091,0.0125,0.0131,0.0062,0.0062,0.0062,0.0062,0,-0.0266,-0.0271,-0.0273,-0.0261,-0.0247,-0.0245,-0.0209,-0.0193,-0.0171,-0.0142,-0.0106,-0.0059,-0.002,-0.0005,0.0017,0.0051,0.0062,0.0075,0.0093,0.0091,0.0127,0.0134,0.0059,0.006,0.006,0.0061,0,0,-0.0295,-0.0291,-0.0294,-0.0301,-0.0269,-0.0264,-0.0243,-0.0214,-0.0203,-0.016,-0.0137,-0.0083,-0.0057,-0.0032,0.0005,0.0044,0.0082,0.0063,0.0065,0.0095,0.0167,0.0151,0.0157,0.01,0.0101,0.0102,0.0184,0,-0.0322,-0.0342,-0.0324,-0.034,-0.0346,-0.0308,-0.0293,-0.0259,-0.0224,-0.0193,-0.0131,-0.01,-0.0066,-0.005,-0.0004,0.006,0.0099,0.0059,0.0165,0.0168,0.0154,0.0165,0.0105,0.0189,0.0191,0.0192,0.0193,0,-0.0347,-0.0358,-0.0384,-0.0386,-0.0385,-0.0385,-0.0358,-0.034,-0.0278,-0.025,-0.0196,-0.0146,-0.0078,-0.0057,0.0062,0.0033,0.0093,0.0145,0.0149,0.015,0.0165,0.0193,0.0206,0.0205,0.0204,0.0203,0.0203,0,-0.0385,-0.04,-0.0428,-0.0427,-0.0418,-0.0422,-0.0412,-0.0362,-0.0349,-0.0286,-0.0267,-0.0175,-0.0132,-0.004,0.0072,0.0066,0.02,0.0207,0.0253,0.0252,0.0256,0.0254,0.0285,0.0285,0.0285,0.0285,0.0285,0,-0.0416,-0.0441,-0.0455,-0.0469,-0.0502,-0.0472,-0.0486,-0.0458,-0.0413,-0.0394,-0.0307,-0.0267,-0.0127,-0.0029,0.0066,0.0183,0.02,0.0253,0.0274,0.024,0.0235,0.0261,0.0258,0.0288,0.0287,0.0287,0.0286,0,-0.0451,-0.0461,-0.0499,-0.0513,-0.0525,-0.0548,-0.0551,-0.055,-0.0501,-0.0471,-0.0454,-0.033,-0.0201,-0.0058,0.0102,0.0169,0.0285,0.0321,0.0274,0.0292,0.0311,0.0304,0.0375,0.0375,0.0375,0.0376,0.0376,0,-0.047,-0.0494,-0.0544,-0.0579,-0.0594,-0.0623,-0.064,-0.0604,-0.0594,-0.0507,-0.0491,-0.0361,-0.0266,-0.0045,0.0097,0.0284,0.0304,0.0356,0.0332,0.0307,0.0321,0.0314,0.0308,0.0376,0.0376,0.0376,0.0376,0,-0.0503,-0.0527,-0.056,-0.0634,-0.0675,-0.0711,-0.0726,-0.0722,-0.0663,-0.0624,-0.051,-0.0378,-0.0229,-0.005,0.0099,0.0229,0.0318,0.0358,0.0358,0.0336,0.0309,0.0321,0.0315,0.0376,0.0376,0.0376,0.0376,0,-0.0528,-0.0567,-0.0618,-0.0679,-0.0739,-0.0772,-0.0776,-0.0743,-0.0718,-0.0606,-0.057,-0.039,-0.0277,-0.0078,0.0058,0.0188,0.0212,0.0236,0.0243,0.0244,0.0178,0.0122,0.0153,0,0,0,0,0,-0.0543,-0.0591,-0.0657,-0.0722,-0.078,-0.0806,-0.0818,-0.0803,-0.0745,-0.0673,-0.0614,-0.0467,-0.0239,-0.0134,-0.0008,0.0041,0.0217,0.0189,0.0244,0.0379,0.0378,0.0321,0,0,0,0,0,0,-0.0557,-0.0623,-0.0658,-0.0738,-0.0785,-0.0836,-0.0842,-0.0806,-0.075,-0.0675,-0.055,-0.0459,-0.0237,-0.031,-0.0011,0.003,0.0075,0.0307,0.0309,0.0379,0.0379,0.0378,0.0319,0,0,0,0,0]}]]